TimeCST,TemperatureF,Dew PointF,Humidity,Sea Level PressureIn,VisibilityMPH,Wind Direction,Wind SpeedMPH,Gust SpeedMPH,PrecipitationIn,Events,Conditions,WindDirDegrees,DateUTC
12:56 AM,6.1,3.0,87,30.51,-9999.0,Calm,Calm,-,N/A,,Unknown,0,2013-11-27 06:56:00
1:56 AM,3.0,-0.9,84,30.48,-9999.0,Calm,Calm,-,N/A,,Unknown,0,2013-11-27 07:56:00
2:56 AM,5.0,1.0,84,30.48,-9999.0,Calm,Calm,-,N/A,,Unknown,0,2013-11-27 08:56:00
3:56 AM,3.0,-0.0,87,30.45,-9999.0,SSW,5.8,-,N/A,,Unknown,210,2013-11-27 09:56:00
4:56 AM,1.9,-0.0,91,30.43,-9999.0,South,6.9,-,N/A,,Unknown,190,2013-11-27 10:56:00
5:56 AM,6.1,1.9,83,30.41,-9999.0,South,6.9,-,N/A,,Unknown,180,2013-11-27 11:56:00
6:56 AM,8.1,3.0,80,30.39,-9999.0,South,6.9,-,N/A,,Unknown,180,2013-11-27 12:56:00
7:56 AM,10.9,6.1,81,30.35,-9999.0,South,11.5,-,N/A,,Unknown,170,2013-11-27 13:56:00
8:56 AM,12.0,7.0,80,30.31,-9999.0,South,13.8,-,N/A,,Unknown,180,2013-11-27 14:56:00
9:56 AM,15.1,9.0,77,30.29,-9999.0,SSE,12.7,-,N/A,,Unknown,160,2013-11-27 15:56:00
10:56 AM,17.1,9.0,71,30.27,-9999.0,SSE,12.7,-,N/A,,Unknown,160,2013-11-27 16:56:00
11:56 AM,19.0,10.0,68,30.19,-9999.0,South,19.6,-,N/A,,Unknown,170,2013-11-27 17:56:00
12:56 PM,23.0,10.0,58,30.08,-9999.0,SSE,21.9,29.9,N/A,,Unknown,160,2013-11-27 18:56:00
1:56 PM,27.0,10.0,49,30.04,-9999.0,South,24.2,28.8,N/A,,Unknown,170,2013-11-27 19:56:00
2:56 PM,28.0,10.0,47,30.05,-9999.0,South,15.0,-,N/A,,Unknown,180,2013-11-27 20:56:00
3:56 PM,28.0,10.0,47,30.05,-9999.0,South,10.4,-,N/A,,Unknown,170,2013-11-27 21:56:00
4:56 PM,24.1,9.0,53,30.05,-9999.0,SSE,8.1,-,N/A,,Unknown,150,2013-11-27 22:56:00
5:56 PM,19.9,9.0,62,30.06,-9999.0,ESE,4.6,-,N/A,,Unknown,120,2013-11-27 23:56:00
6:56 PM,19.0,9.0,65,30.07,-9999.0,ESE,3.5,-,N/A,,Unknown,120,2013-11-28 00:56:00
7:56 PM,15.1,7.0,70,30.09,-9999.0,Calm,Calm,-,N/A,,Unknown,0,2013-11-28 01:56:00
8:56 PM,12.9,6.1,74,30.11,-9999.0,Calm,Calm,-,N/A,,Unknown,0,2013-11-28 02:56:00
9:56 PM,9.0,3.9,80,30.13,-9999.0,NW,5.8,-,N/A,,Unknown,320,2013-11-28 03:56:00
10:56 PM,15.1,10.9,84,30.14,-9999.0,NNW,11.5,-,N/A,,Unknown,340,2013-11-28 04:56:00
11:56 PM,19.0,10.9,71,30.16,-9999.0,NNW,19.6,26.5,N/A,,Unknown,340,2013-11-28 05:56:00